AMC-18

Last updated on Oct. 31, 2020, 5:53 a.m. UTC

1 29644U 06054B   20304.62354833  .00000033  00000-0  00000-0 0  9999
2 29644   0.0266 287.3373 0002224 212.5605 351.0446  1.00675532 50978
UTC
Height (km)
Latitude
Longitude
Inclination
Orbital Period
UTC large
Height (km)
Speed (km/s)
/
Latitude / Longitude
Inclination (degrees)
Orbital Period (minutes)
Azimuth
Elevation
Range (km)
Doppler Factor
iOS Compass Heading
iOS Angle

Next 30 passes for location: Hong Kong

Rise time Rise Azimuth (degrees) Set time Set Azimuth (degrees) Duration Max altitude (degrees)

No matching passes for this satellites